Time,TemperatureF,DewpointF,PressureIn,WindDirection,WindDirectionDegrees,WindSpeedMPH,WindSpeedGustMPH,Humidity,HourlyPrecipIn,Conditions,Clouds,dailyrainin,SoftwareType,DateUTC
2013-03-18 00:00:00,23.9,14.6,29.94,WSW,247,0.0,0.0,67,0.00,,,0.00,WUHU21636XXSP,2013-03-18 05:00:00,
2013-03-18 00:05:00,23.9,14.6,29.95,NNE,22,0.0,0.0,67,0.00,,,0.00,WUHU21636XXSP,2013-03-18 05:05:00,
2013-03-18 00:10:00,23.9,14.6,29.95,South,180,0.0,0.0,67,0.00,,,0.00,WUHU21636XXSP,2013-03-18 05:10:00,
2013-03-18 00:15:00,23.9,14.6,29.94,ESE,112,0.0,0.0,67,0.00,,,0.00,WUHU21636XXSP,2013-03-18 05:15:00,
2013-03-18 00:20:00,23.9,14.6,29.94,East,90,0.0,0.0,67,0.00,,,0.00,WUHU21636XXSP,2013-03-18 05:20:00,
2013-03-18 00:25:00,23.7,14.8,29.94,SW,225,0.0,0.0,68,0.00,,,0.00,WUHU21636XXSP,2013-03-18 05:25:00,
2013-03-18 00:30:00,23.7,14.8,29.94,West,270,0.0,0.0,68,0.00,,,0.00,WUHU21636XXSP,2013-03-18 05:30:00,
2013-03-18 00:35:00,23.5,14.6,29.94,SW,225,0.0,0.0,68,0.00,,,0.00,WUHU21636XXSP,2013-03-18 05:35:00,
2013-03-18 00:40:00,23.5,14.9,29.94,SE,135,0.0,0.0,69,0.00,,,0.00,WUHU21636XXSP,2013-03-18 05:40:00,
2013-03-18 00:45:00,23.5,14.6,29.93,South,180,0.0,0.0,68,0.00,,,0.00,WUHU21636XXSP,2013-03-18 05:45:00,
2013-03-18 00:50:00,23.3,14.7,29.93,SW,225,0.0,0.0,69,0.00,,,0.00,WUHU21636XXSP,2013-03-18 05:50:00,
2013-03-18 00:55:00,23.5,14.9,29.93,NW,315,0.0,0.0,69,0.00,,,0.00,WUHU21636XXSP,2013-03-18 05:55:00,
2013-03-18 01:00:00,23.3,14.7,29.93,South,180,0.0,0.0,69,0.00,,,0.00,WUHU21636XXSP,2013-03-18 06:00:00,
2013-03-18 01:05:00,23.3,14.7,29.93,West,270,0.0,0.0,69,0.00,,,0.00,WUHU21636XXSP,2013-03-18 06:05:00,
2013-03-18 01:10:00,23.3,14.7,29.94,West,270,0.0,0.0,69,0.00,,,0.00,WUHU21636XXSP,2013-03-18 06:10:00,
2013-03-18 01:15:00,23.3,14.7,29.94,West,270,0.0,0.0,69,0.00,,,0.00,WUHU21636XXSP,2013-03-18 06:15:00,
2013-03-18 01:20:00,23.3,14.7,29.94,West,270,0.0,0.0,69,0.00,,,0.00,WUHU21636XXSP,2013-03-18 06:20:00,
2013-03-18 01:25:00,23.2,14.6,29.94,SSW,202,0.0,0.0,69,0.00,,,0.00,WUHU21636XXSP,2013-03-18 06:25:00,
2013-03-18 01:30:00,23.0,14.4,29.93,SSW,202,0.0,0.0,69,0.00,,,0.00,WUHU21636XXSP,2013-03-18 06:30:00,
2013-03-18 01:35:00,22.6,14.3,29.93,SSW,202,0.0,0.0,70,0.00,,,0.00,WUHU21636XXSP,2013-03-18 06:35:00,
2013-03-18 01:40:00,22.4,14.1,29.92,SSW,202,0.0,0.0,70,0.00,,,0.00,WUHU21636XXSP,2013-03-18 06:40:00,
2013-03-18 01:45:00,22.3,14.0,29.92,SSW,202,0.0,0.0,70,0.00,,,0.00,WUHU21636XXSP,2013-03-18 06:45:00,
2013-03-18 01:50:00,22.0,13.8,29.91,SSW,202,0.0,0.0,70,0.00,,,0.00,WUHU21636XXSP,2013-03-18 06:50:00,
2013-03-18 01:55:00,21.8,13.9,29.91,SSW,202,0.0,0.0,71,0.00,,,0.00,WUHU21636XXSP,2013-03-18 06:55:00,
2013-03-18 02:00:00,21.6,13.7,29.91,SSW,202,0.0,0.0,71,0.00,,,0.00,WUHU21636XXSP,2013-03-18 07:00:00,
2013-03-18 02:05:00,21.4,13.5,29.91,SSW,202,0.0,0.0,71,0.00,,,0.00,WUHU21636XXSP,2013-03-18 07:05:00,
2013-03-18 02:10:00,21.3,13.7,29.90,SSW,202,0.0,0.0,72,0.00,,,0.00,WUHU21636XXSP,2013-03-18 07:10:00,
2013-03-18 02:15:00,21.1,13.5,29.90,SSW,202,0.0,0.0,72,0.00,,,0.00,WUHU21636XXSP,2013-03-18 07:15:00,
2013-03-18 02:20:00,21.1,13.5,29.89,SSW,202,0.0,0.0,72,0.00,,,0.00,WUHU21636XXSP,2013-03-18 07:20:00,
2013-03-18 02:25:00,20.7,13.1,29.89,SSW,202,0.0,0.0,72,0.00,,,0.00,WUHU21636XXSP,2013-03-18 07:25:00,
2013-03-18 02:30:00,20.7,13.1,29.89,SSW,202,0.0,0.0,72,0.00,,,0.00,WUHU21636XXSP,2013-03-18 07:30:00,
2013-03-18 02:35:00,20.7,13.4,29.88,NE,45,0.0,0.0,73,0.00,,,0.00,WUHU21636XXSP,2013-03-18 07:35:00,
2013-03-18 02:40:00,20.7,13.4,29.88,NE,45,0.0,0.0,73,0.00,,,0.00,WUHU21636XXSP,2013-03-18 07:40:00,
2013-03-18 02:45:00,20.7,13.4,29.88,NE,45,0.0,0.0,73,0.00,,,0.00,WUHU21636XXSP,2013-03-18 07:45:00,
2013-03-18 02:50:00,20.7,13.4,29.87,NE,45,0.0,0.0,73,0.00,,,0.00,WUHU21636XXSP,2013-03-18 07:50:00,
2013-03-18 02:55:00,20.7,13.4,29.87,NE,45,0.0,0.0,73,0.00,,,0.00,WUHU21636XXSP,2013-03-18 07:55:00,
2013-03-18 03:00:00,20.7,13.4,29.87,NE,45,0.0,0.0,73,0.00,,,0.00,WUHU21636XXSP,2013-03-18 08:00:00,
2013-03-18 03:05:00,20.7,13.4,29.87,North,0,0.0,0.0,73,0.00,,,0.00,WUHU21636XXSP,2013-03-18 08:05:00,
2013-03-18 03:10:00,20.7,13.4,29.86,North,0,0.0,0.0,73,0.00,,,0.00,WUHU21636XXSP,2013-03-18 08:10:00,
2013-03-18 03:15:00,20.7,13.4,29.86,NW,315,0.0,0.0,73,0.00,,,0.00,WUHU21636XXSP,2013-03-18 08:15:00,
2013-03-18 03:20:00,20.7,13.7,29.85,NE,45,0.0,0.0,74,0.00,,,0.00,WUHU21636XXSP,2013-03-18 08:20:00,
2013-03-18 03:25:00,20.7,13.7,29.85,NE,45,0.0,0.0,74,0.00,,,0.00,WUHU21636XXSP,2013-03-18 08:25:00,
2013-03-18 03:30:00,21.1,14.1,29.84,NE,45,0.0,0.0,74,0.00,,,0.00,WUHU21636XXSP,2013-03-18 08:30:00,
2013-03-18 03:35:00,21.1,14.1,29.84,East,90,0.0,0.0,74,0.00,,,0.00,WUHU21636XXSP,2013-03-18 08:35:00,
2013-03-18 03:40:00,21.1,14.5,29.84,West,270,0.0,0.0,75,0.00,,,0.00,WUHU21636XXSP,2013-03-18 08:40:00,
2013-03-18 03:45:00,21.3,14.7,29.84,East,90,0.0,0.0,75,0.00,,,0.00,WUHU21636XXSP,2013-03-18 08:45:00,
2013-03-18 03:50:00,21.4,14.8,29.83,East,90,0.0,0.0,75,0.00,,,0.00,WUHU21636XXSP,2013-03-18 08:50:00,
2013-03-18 03:55:00,21.6,15.0,29.83,NW,315,0.0,0.0,75,0.00,,,0.00,WUHU21636XXSP,2013-03-18 08:55:00,
2013-03-18 04:00:00,21.6,15.0,29.82,NNE,22,0.0,0.0,75,0.00,,,0.00,WUHU21636XXSP,2013-03-18 09:00:00,
2013-03-18 04:05:00,21.8,15.2,29.82,NNE,22,0.0,0.0,75,0.00,,,0.00,WUHU21636XXSP,2013-03-18 09:05:00,
2013-03-18 04:10:00,22.3,15.6,29.81,ENE,67,0.0,0.0,75,0.00,,,0.00,WUHU21636XXSP,2013-03-18 09:10:00,
2013-03-18 04:15:00,22.4,15.4,29.81,NW,315,0.0,0.0,74,0.00,,,0.00,WUHU21636XXSP,2013-03-18 09:15:00,
2013-03-18 04:20:00,22.4,15.4,29.81,South,180,0.0,0.0,74,0.00,,,0.00,WUHU21636XXSP,2013-03-18 09:20:00,
2013-03-18 04:25:00,22.6,15.6,29.80,ENE,67,0.0,0.0,74,0.00,,,0.00,WUHU21636XXSP,2013-03-18 09:25:00,
2013-03-18 04:30:00,22.6,15.6,29.80,ENE,67,0.0,0.0,74,0.00,,,0.00,WUHU21636XXSP,2013-03-18 09:30:00,
2013-03-18 04:35:00,22.8,16.1,29.80,ENE,67,0.0,0.0,75,0.00,,,0.00,WUHU21636XXSP,2013-03-18 09:35:00,
2013-03-18 04:40:00,23.0,16.0,29.80,South,180,0.0,0.0,74,0.00,,,0.00,WUHU21636XXSP,2013-03-18 09:40:00,
2013-03-18 04:45:00,23.0,16.0,29.79,North,0,0.0,0.0,74,0.00,,,0.00,WUHU21636XXSP,2013-03-18 09:45:00,
2013-03-18 04:50:00,23.2,16.2,29.79,WNW,292,0.0,0.0,74,0.00,,,0.00,WUHU21636XXSP,2013-03-18 09:50:00,
2013-03-18 04:55:00,23.3,16.3,29.79,SSW,202,0.0,0.0,74,0.00,,,0.00,WUHU21636XXSP,2013-03-18 09:55:00,
2013-03-18 05:00:00,23.3,16.3,29.79,NW,315,0.0,0.0,74,0.00,,,0.00,WUHU21636XXSP,2013-03-18 10:00:00,
2013-03-18 05:05:00,23.5,16.5,29.79,West,270,0.0,0.0,74,0.00,,,0.00,WUHU21636XXSP,2013-03-18 10:05:00,
2013-03-18 05:10:00,23.5,16.8,29.78,South,180,0.0,0.0,75,0.00,,,0.00,WUHU21636XXSP,2013-03-18 10:10:00,
2013-03-18 05:15:00,23.9,17.2,29.78,WSW,247,0.0,0.0,75,0.00,,,0.00,WUHU21636XXSP,2013-03-18 10:15:00,
2013-03-18 05:20:00,23.9,17.5,29.78,West,270,0.0,0.0,76,0.00,,,0.00,WUHU21636XXSP,2013-03-18 10:20:00,
2013-03-18 05:25:00,23.9,17.5,29.78,NNW,337,0.0,0.0,76,0.00,,,0.00,WUHU21636XXSP,2013-03-18 10:25:00,
2013-03-18 05:30:00,23.9,17.5,29.77,West,270,0.0,0.0,76,0.00,,,0.00,WUHU21636XXSP,2013-03-18 10:30:00,
2013-03-18 05:35:00,23.9,17.5,29.77,WSW,247,0.0,0.0,76,0.00,,,0.00,WUHU21636XXSP,2013-03-18 10:35:00,
2013-03-18 05:40:00,23.9,17.5,29.77,SW,225,0.0,1.2,76,0.00,,,0.00,WUHU21636XXSP,2013-03-18 10:40:00,
2013-03-18 05:45:00,24.1,17.7,29.77,NE,45,0.0,1.2,76,0.00,,,0.00,WUHU21636XXSP,2013-03-18 10:45:00,
2013-03-18 05:51:00,24.3,18.1,29.76,WSW,247,0.0,0.0,77,0.00,,,0.00,WUHU21636XXSP,2013-03-18 10:51:00,
2013-03-18 05:56:00,24.3,18.1,29.76,ESE,112,0.0,0.0,77,0.00,,,0.00,WUHU21636XXSP,2013-03-18 10:56:00,
2013-03-18 06:01:00,24.3,17.8,29.76,South,180,0.0,0.0,76,0.00,,,0.00,WUHU21636XXSP,2013-03-18 11:01:00,
2013-03-18 06:06:00,24.3,17.8,29.76,SSW,202,0.0,0.0,76,0.00,,,0.00,WUHU21636XXSP,2013-03-18 11:06:00,
2013-03-18 06:10:00,24.3,17.8,29.76,SE,135,0.0,0.0,76,0.00,,,0.00,WUHU21636XXSP,2013-03-18 11:10:00,
2013-03-18 06:16:00,24.5,18.0,29.75,West,270,0.0,0.0,76,0.00,,,0.00,WUHU21636XXSP,2013-03-18 11:16:00,
2013-03-18 06:21:00,24.5,17.7,29.75,WNW,292,0.0,0.0,75,0.00,,,0.00,WUHU21636XXSP,2013-03-18 11:21:00,
2013-03-18 06:26:00,24.5,17.7,29.75,SE,135,0.0,0.0,75,0.00,,,0.00,WUHU21636XXSP,2013-03-18 11:26:00,
2013-03-18 06:31:00,24.5,17.7,29.75,WSW,247,0.0,0.0,75,0.00,,,0.00,WUHU21636XXSP,2013-03-18 11:31:00,
2013-03-18 06:36:00,24.5,18.0,29.75,SSE,157,0.0,0.0,76,0.00,,,0.00,WUHU21636XXSP,2013-03-18 11:36:00,
2013-03-18 06:41:00,24.5,18.0,29.74,SE,135,0.0,0.0,76,0.00,,,0.00,WUHU21636XXSP,2013-03-18 11:41:00,
2013-03-18 06:46:00,24.5,18.0,29.74,ENE,67,0.0,0.0,76,0.00,,,0.00,WUHU21636XXSP,2013-03-18 11:46:00,
2013-03-18 06:51:00,24.5,18.0,29.74,South,180,0.0,0.0,76,0.00,,,0.00,WUHU21636XXSP,2013-03-18 11:51:00,
2013-03-18 06:56:00,24.5,18.0,29.73,South,180,0.0,0.0,76,0.00,,,0.00,WUHU21636XXSP,2013-03-18 11:56:00,
2013-03-18 07:01:00,24.5,18.0,29.73,SW,225,0.0,0.0,76,0.00,,,0.00,WUHU21636XXSP,2013-03-18 12:01:00,
2013-03-18 07:06:00,24.7,18.5,29.73,SW,225,0.0,0.0,77,0.00,,,0.00,WUHU21636XXSP,2013-03-18 12:06:00,
2013-03-18 07:11:00,24.9,18.7,29.73,ENE,67,0.0,0.0,77,0.00,,,0.00,WUHU21636XXSP,2013-03-18 12:11:00,
2013-03-18 07:16:00,24.9,19.0,29.73,ESE,112,0.0,0.0,78,0.00,,,0.00,WUHU21636XXSP,2013-03-18 12:16:00,
2013-03-18 07:21:00,25.1,19.2,29.73,ESE,112,0.0,0.0,78,0.00,,,0.00,WUHU21636XXSP,2013-03-18 12:21:00,
2013-03-18 07:26:00,25.1,19.2,29.72,SE,135,0.0,0.0,78,0.00,,,0.00,WUHU21636XXSP,2013-03-18 12:26:00,
2013-03-18 07:31:00,25.1,19.2,29.72,ENE,67,0.0,0.0,78,0.00,,,0.00,WUHU21636XXSP,2013-03-18 12:31:00,
2013-03-18 07:36:00,25.1,19.2,29.73,SSE,157,0.0,0.0,78,0.00,,,0.00,WUHU21636XXSP,2013-03-18 12:36:00,
2013-03-18 07:41:00,25.1,19.2,29.73,ESE,112,0.0,0.0,78,0.00,,,0.00,WUHU21636XXSP,2013-03-18 12:41:00,
2013-03-18 07:46:00,25.1,19.2,29.73,SE,135,0.0,0.0,78,0.00,,,0.00,WUHU21636XXSP,2013-03-18 12:46:00,
2013-03-18 07:51:00,25.1,19.2,29.73,ENE,67,0.0,0.0,78,0.00,,,0.00,WUHU21636XXSP,2013-03-18 12:51:00,
2013-03-18 07:56:00,24.9,19.0,29.73,ENE,67,0.0,0.0,78,0.00,,,0.00,WUHU21636XXSP,2013-03-18 12:56:00,
2013-03-18 08:01:00,25.1,19.5,29.73,ENE,67,0.0,0.0,79,0.00,,,0.00,WUHU21636XXSP,2013-03-18 13:01:00,
2013-03-18 08:06:00,25.1,19.5,29.73,ENE,67,0.0,0.0,79,0.00,,,0.00,WUHU21636XXSP,2013-03-18 13:06:00,
2013-03-18 08:11:00,25.2,19.6,29.73,ENE,67,0.0,0.0,79,0.00,,,0.00,WUHU21636XXSP,2013-03-18 13:11:00,
2013-03-18 08:16:00,25.4,19.8,29.72,SSW,202,0.0,0.0,79,0.00,,,0.00,WUHU21636XXSP,2013-03-18 13:16:00,
2013-03-18 08:21:00,25.4,19.8,29.72,SSW,202,0.0,0.0,79,0.00,,,0.00,WUHU21636XXSP,2013-03-18 13:21:00,
2013-03-18 08:26:00,25.6,20.0,29.72,NE,45,0.0,0.0,79,0.00,,,0.00,WUHU21636XXSP,2013-03-18 13:26:00,
2013-03-18 08:31:00,25.4,19.5,29.72,ESE,112,0.0,0.0,78,0.00,,,0.00,WUHU21636XXSP,2013-03-18 13:31:00,
2013-03-18 08:36:00,25.4,19.8,29.72,South,180,0.0,0.0,79,0.00,,,0.00,WUHU21636XXSP,2013-03-18 13:36:00,
2013-03-18 08:41:00,25.4,19.8,29.71,ESE,112,0.0,0.0,79,0.00,,,0.00,WUHU21636XXSP,2013-03-18 13:41:00,
2013-03-18 08:46:00,25.4,19.8,29.71,East,90,0.0,0.0,79,0.00,,,0.00,WUHU21636XXSP,2013-03-18 13:46:00,
2013-03-18 08:51:00,25.4,19.8,29.72,ENE,67,0.0,0.0,79,0.00,,,0.00,WUHU21636XXSP,2013-03-18 13:51:00,
2013-03-18 08:56:00,25.4,19.8,29.71,ENE,67,0.0,0.0,79,0.00,,,0.00,WUHU21636XXSP,2013-03-18 13:56:00,
2013-03-18 09:01:00,25.6,20.3,29.71,ENE,67,0.0,0.0,80,0.00,,,0.00,WUHU21636XXSP,2013-03-18 14:01:00,
2013-03-18 09:06:00,26.1,20.8,29.71,ENE,67,0.0,0.0,80,0.00,,,0.00,WUHU21636XXSP,2013-03-18 14:06:00,
2013-03-18 09:11:00,26.0,20.7,29.71,ENE,67,0.0,0.0,80,0.00,,,0.00,WUHU21636XXSP,2013-03-18 14:11:00,
2013-03-18 09:16:00,26.1,20.8,29.71,ENE,67,0.0,0.0,80,0.00,,,0.00,WUHU21636XXSP,2013-03-18 14:16:00,
2013-03-18 09:21:00,26.8,21.4,29.70,ENE,67,0.0,0.0,80,0.00,,,0.00,WUHU21636XXSP,2013-03-18 14:21:00,
2013-03-18 09:26:00,27.1,21.5,29.70,ENE,67,0.0,0.0,79,0.00,,,0.00,WUHU21636XXSP,2013-03-18 14:26:00,
2013-03-18 09:31:00,27.3,21.4,29.69,ENE,67,0.0,0.0,78,0.00,,,0.00,WUHU21636XXSP,2013-03-18 14:31:00,
2013-03-18 09:36:00,27.5,21.6,29.69,ENE,67,0.0,0.0,78,0.00,,,0.00,WUHU21636XXSP,2013-03-18 14:36:00,
2013-03-18 09:41:00,27.7,21.8,29.69,ENE,67,0.0,0.0,78,0.00,,,0.00,WUHU21636XXSP,2013-03-18 14:41:00,
2013-03-18 09:47:00,28.2,22.0,29.69,NNE,22,0.0,0.0,77,0.00,,,0.00,WUHU21636XXSP,2013-03-18 14:47:00,
2013-03-18 09:52:00,28.2,22.0,29.69,NNE,22,0.0,0.0,77,0.00,,,0.00,WUHU21636XXSP,2013-03-18 14:52:00,
2013-03-18 09:57:00,28.7,22.1,29.68,East,90,0.0,0.0,76,0.00,,,0.00,WUHU21636XXSP,2013-03-18 14:57:00,
2013-03-18 10:02:00,29.0,22.4,29.68,East,90,0.0,0.0,76,0.00,,,0.00,WUHU21636XXSP,2013-03-18 15:02:00,
2013-03-18 10:07:00,29.0,22.1,29.68,East,90,0.0,0.0,75,0.00,,,0.00,WUHU21636XXSP,2013-03-18 15:07:00,
2013-03-18 10:12:00,28.9,22.0,29.68,East,90,0.0,0.0,75,0.00,,,0.00,WUHU21636XXSP,2013-03-18 15:12:00,
2013-03-18 10:17:00,29.0,22.1,29.68,East,90,0.0,0.0,75,0.00,,,0.00,WUHU21636XXSP,2013-03-18 15:17:00,
2013-03-18 10:22:00,28.7,21.5,29.68,WNW,292,0.0,0.0,74,0.00,,,0.00,WUHU21636XXSP,2013-03-18 15:22:00,
2013-03-18 10:27:00,28.5,21.6,29.68,WNW,292,0.0,0.0,75,0.00,,,0.00,WUHU21636XXSP,2013-03-18 15:27:00,
2013-03-18 10:32:00,28.2,21.4,29.68,WNW,292,0.0,0.0,75,0.00,,,0.00,WUHU21636XXSP,2013-03-18 15:32:00,
2013-03-18 10:37:00,28.2,21.4,29.67,West,270,0.0,0.0,75,0.00,,,0.00,WUHU21636XXSP,2013-03-18 15:37:00,
2013-03-18 10:42:00,28.2,21.4,29.67,NW,315,0.0,0.0,75,0.00,,,0.00,WUHU21636XXSP,2013-03-18 15:42:00,
2013-03-18 10:47:00,28.2,21.7,29.67,WSW,247,0.0,0.0,76,0.00,,,0.00,WUHU21636XXSP,2013-03-18 15:47:00,
2013-03-18 10:52:00,28.2,21.7,29.67,WSW,247,0.0,0.0,76,0.00,,,0.00,WUHU21636XXSP,2013-03-18 15:52:00,
2013-03-18 10:57:00,28.2,21.7,29.66,West,270,0.0,0.0,76,0.00,,,0.00,WUHU21636XXSP,2013-03-18 15:57:00,
2013-03-18 11:02:00,28.7,22.1,29.66,West,270,0.0,0.0,76,0.00,,,0.00,WUHU21636XXSP,2013-03-18 16:02:00,
2013-03-18 11:07:00,28.9,22.6,29.66,WSW,247,0.0,0.0,77,0.00,,,0.00,WUHU21636XXSP,2013-03-18 16:07:00,
2013-03-18 11:12:00,29.0,22.7,29.66,WSW,247,0.0,0.0,77,0.00,,,0.00,WUHU21636XXSP,2013-03-18 16:12:00,
2013-03-18 11:17:00,28.9,22.6,29.65,WSW,247,0.0,0.0,77,0.00,,,0.00,WUHU21636XXSP,2013-03-18 16:17:00,
2013-03-18 11:22:00,28.7,22.4,29.65,WSW,247,0.0,0.0,77,0.00,,,0.00,WUHU21636XXSP,2013-03-18 16:22:00,
2013-03-18 11:27:00,29.2,23.2,29.64,WSW,247,0.0,0.0,78,0.00,,,0.00,WUHU21636XXSP,2013-03-18 16:27:00,
2013-03-18 11:32:00,29.6,23.3,29.64,WSW,247,0.0,0.0,77,0.00,,,0.00,WUHU21636XXSP,2013-03-18 16:32:00,
2013-03-18 11:37:00,29.8,23.5,29.64,WSW,247,0.0,0.0,77,0.00,,,0.00,WUHU21636XXSP,2013-03-18 16:37:00,
2013-03-18 11:42:00,29.6,23.3,29.64,WSW,247,0.0,0.0,77,0.00,,,0.00,WUHU21636XXSP,2013-03-18 16:42:00,
2013-03-18 11:47:00,29.9,23.6,29.64,WSW,247,0.0,0.0,77,0.00,,,0.00,WUHU21636XXSP,2013-03-18 16:47:00,
2013-03-18 11:52:00,29.9,23.6,29.63,WSW,247,0.0,0.0,77,0.00,,,0.00,WUHU21636XXSP,2013-03-18 16:52:00,
2013-03-18 11:57:00,29.9,23.6,29.64,WSW,247,0.0,0.0,77,0.00,,,0.00,WUHU21636XXSP,2013-03-18 16:57:00,
2013-03-18 12:02:00,30.1,23.8,29.64,West,270,0.0,0.0,77,0.00,,,0.00,WUHU21636XXSP,2013-03-18 17:02:00,
2013-03-18 12:07:00,30.3,24.0,29.63,West,270,0.0,0.0,77,0.00,,,0.00,WUHU21636XXSP,2013-03-18 17:07:00,
2013-03-18 12:12:00,30.1,23.8,29.63,West,270,0.0,0.0,77,0.00,,,0.00,WUHU21636XXSP,2013-03-18 17:12:00,
2013-03-18 12:17:00,30.1,23.8,29.63,West,270,0.0,0.0,77,0.00,,,0.00,WUHU21636XXSP,2013-03-18 17:17:00,
2013-03-18 12:22:00,29.8,23.5,29.63,West,270,0.0,0.0,77,0.00,,,0.00,WUHU21636XXSP,2013-03-18 17:22:00,
2013-03-18 12:27:00,29.8,23.5,29.63,West,270,0.0,0.0,77,0.00,,,0.00,WUHU21636XXSP,2013-03-18 17:27:00,
2013-03-18 12:32:00,29.9,23.9,29.62,West,270,0.0,0.0,78,0.00,,,0.00,WUHU21636XXSP,2013-03-18 17:32:00,
2013-03-18 12:37:00,29.9,23.9,29.61,West,270,0.0,0.0,78,0.00,,,0.00,WUHU21636XXSP,2013-03-18 17:37:00,
2013-03-18 12:42:00,30.3,24.3,29.61,West,270,0.0,0.0,78,0.00,,,0.00,WUHU21636XXSP,2013-03-18 17:42:00,
2013-03-18 12:47:00,30.3,24.3,29.61,West,270,0.0,0.0,78,0.00,,,0.00,WUHU21636XXSP,2013-03-18 17:47:00,
2013-03-18 12:52:00,30.9,24.8,29.61,West,270,0.0,0.0,78,0.00,,,0.00,WUHU21636XXSP,2013-03-18 17:52:00,
2013-03-18 12:57:00,31.5,25.5,29.61,West,270,0.0,0.0,78,0.00,,,0.00,WUHU21636XXSP,2013-03-18 17:57:00,
2013-03-18 13:02:00,31.8,25.5,29.61,West,270,0.0,0.0,77,0.00,,,0.00,WUHU21636XXSP,2013-03-18 18:02:00,
2013-03-18 13:07:00,32.4,25.8,29.60,West,270,0.0,0.0,76,0.00,,,0.00,WUHU21636XXSP,2013-03-18 18:07:00,
2013-03-18 13:12:00,33.0,25.6,29.60,West,270,0.0,0.0,74,0.00,,,0.00,WUHU21636XXSP,2013-03-18 18:12:00,
2013-03-18 13:17:00,33.0,25.6,29.60,SSW,202,0.0,0.0,74,0.00,,,0.00,WUHU21636XXSP,2013-03-18 18:17:00,
2013-03-18 13:22:00,33.0,25.6,29.60,WSW,247,0.0,0.0,74,0.00,,,0.00,WUHU21636XXSP,2013-03-18 18:22:00,
2013-03-18 13:27:00,32.8,25.4,29.59,WSW,247,0.0,0.0,74,0.00,,,0.00,WUHU21636XXSP,2013-03-18 18:27:00,
2013-03-18 13:32:00,32.7,25.0,29.59,WSW,247,0.0,0.0,73,0.00,,,0.00,WUHU21636XXSP,2013-03-18 18:32:00,
2013-03-18 13:37:00,32.7,25.3,29.59,WSW,247,0.0,0.0,74,0.00,,,0.00,WUHU21636XXSP,2013-03-18 18:37:00,
2013-03-18 13:42:00,32.4,25.1,29.59,SW,225,0.0,0.0,74,0.00,,,0.00,WUHU21636XXSP,2013-03-18 18:42:00,
2013-03-18 13:47:00,33.2,25.8,29.59,SW,225,0.0,0.0,74,0.00,,,0.00,WUHU21636XXSP,2013-03-18 18:47:00,
2013-03-18 13:52:00,33.0,25.6,29.59,WSW,247,0.0,0.0,74,0.00,,,0.00,WUHU21636XXSP,2013-03-18 18:52:00,
2013-03-18 13:57:00,32.4,25.1,29.58,West,270,0.0,0.0,74,0.00,,,0.00,WUHU21636XXSP,2013-03-18 18:57:00,
2013-03-18 14:02:00,32.0,25.0,29.58,West,270,0.0,0.0,75,0.00,,,0.00,WUHU21636XXSP,2013-03-18 19:02:00,
2013-03-18 14:07:00,31.5,24.8,29.58,SW,225,0.0,0.0,76,0.00,,,0.00,WUHU21636XXSP,2013-03-18 19:07:00,
2013-03-18 14:12:00,31.5,24.8,29.58,SW,225,0.0,0.0,76,0.00,,,0.00,WUHU21636XXSP,2013-03-18 19:12:00,
2013-03-18 14:17:00,31.5,24.8,29.58,WSW,247,0.0,0.0,76,0.00,,,0.00,WUHU21636XXSP,2013-03-18 19:17:00,
2013-03-18 14:22:00,31.5,24.8,29.58,WSW,247,0.0,0.0,76,0.00,,,0.00,WUHU21636XXSP,2013-03-18 19:22:00,
2013-03-18 14:27:00,31.5,24.8,29.58,ESE,112,0.0,0.0,76,0.00,,,0.00,WUHU21636XXSP,2013-03-18 19:27:00,
2013-03-18 14:32:00,30.9,24.2,29.59,SSW,202,0.0,0.0,76,0.00,,,0.00,WUHU21636XXSP,2013-03-18 19:32:00,
2013-03-18 14:37:00,29.9,23.0,29.59,West,270,0.0,0.0,75,0.00,,,0.00,WUHU21636XXSP,2013-03-18 19:37:00,
2013-03-18 14:42:00,29.6,22.4,29.60,ESE,112,0.0,0.0,74,0.00,,,0.00,WUHU21636XXSP,2013-03-18 19:42:00,
2013-03-18 14:48:00,29.2,21.3,29.60,East,90,0.0,0.0,72,0.00,,,0.00,WUHU21636XXSP,2013-03-18 19:48:00,
2013-03-18 14:53:00,28.0,19.6,29.61,ESE,112,0.0,0.0,70,0.00,,,0.00,WUHU21636XXSP,2013-03-18 19:53:00,
2013-03-18 14:58:00,27.7,18.9,29.61,South,180,0.0,0.0,69,0.00,,,0.00,WUHU21636XXSP,2013-03-18 19:58:00,
2013-03-18 15:03:00,27.3,18.5,29.61,SSE,157,0.0,0.0,69,0.00,,,0.00,WUHU21636XXSP,2013-03-18 20:03:00,
2013-03-18 15:08:00,27.1,18.0,29.61,South,180,0.0,0.0,68,0.00,,,0.00,WUHU21636XXSP,2013-03-18 20:08:00,
2013-03-18 15:13:00,26.6,17.8,29.61,WSW,247,0.0,0.0,69,0.00,,,0.00,WUHU21636XXSP,2013-03-18 20:13:00,
2013-03-18 15:18:00,26.1,17.1,29.61,South,180,0.0,0.0,68,0.00,,,0.00,WUHU21636XXSP,2013-03-18 20:18:00,
2013-03-18 15:23:00,25.2,15.8,29.62,SSW,202,0.0,0.0,67,0.00,,,0.00,WUHU21636XXSP,2013-03-18 20:23:00,
2013-03-18 15:28:00,24.9,15.2,29.62,South,180,0.0,0.0,66,0.00,,,0.00,WUHU21636XXSP,2013-03-18 20:28:00,
2013-03-18 15:33:00,24.5,14.8,29.63,SW,225,0.0,0.0,66,0.00,,,0.00,WUHU21636XXSP,2013-03-18 20:33:00,
2013-03-18 15:38:00,24.3,14.6,29.63,West,270,0.0,0.0,66,0.00,,,0.00,WUHU21636XXSP,2013-03-18 20:38:00,
2013-03-18 15:43:00,24.3,14.9,29.62,SSW,202,0.0,0.0,67,0.00,,,0.00,WUHU21636XXSP,2013-03-18 20:43:00,
2013-03-18 15:48:00,23.7,14.4,29.63,South,180,0.0,0.0,67,0.00,,,0.00,WUHU21636XXSP,2013-03-18 20:48:00,
2013-03-18 15:53:00,23.5,13.9,29.63,South,180,0.0,0.0,66,0.00,,,0.00,WUHU21636XXSP,2013-03-18 20:53:00,
2013-03-18 15:58:00,23.7,14.1,29.63,SSW,202,0.0,0.0,66,0.00,,,0.00,WUHU21636XXSP,2013-03-18 20:58:00,
2013-03-18 16:03:00,23.9,14.6,29.63,West,270,0.0,0.0,67,0.00,,,0.00,WUHU21636XXSP,2013-03-18 21:03:00,
2013-03-18 16:08:00,24.3,15.3,29.64,WSW,247,0.0,0.0,68,0.00,,,0.00,WUHU21636XXSP,2013-03-18 21:08:00,
2013-03-18 16:13:00,24.5,15.5,29.65,SSW,202,0.0,0.0,68,0.00,,,0.00,WUHU21636XXSP,2013-03-18 21:13:00,
2013-03-18 16:18:00,24.9,15.5,29.65,West,270,0.0,0.0,67,0.00,,,0.00,WUHU21636XXSP,2013-03-18 21:18:00,
2013-03-18 16:23:00,24.9,15.5,29.65,South,180,0.0,0.0,67,0.00,,,0.00,WUHU21636XXSP,2013-03-18 21:23:00,
2013-03-18 16:28:00,24.9,15.5,29.65,WSW,247,0.0,0.0,67,0.00,,,0.00,WUHU21636XXSP,2013-03-18 21:28:00,
2013-03-18 16:33:00,24.3,14.6,29.65,West,270,0.0,0.0,66,0.00,,,0.00,WUHU21636XXSP,2013-03-18 21:33:00,
2013-03-18 16:38:00,24.5,14.8,29.66,SW,225,0.0,0.0,66,0.00,,,0.00,WUHU21636XXSP,2013-03-18 21:38:00,
2013-03-18 16:43:00,24.7,15.3,29.65,South,180,0.0,0.0,67,0.00,,,0.00,WUHU21636XXSP,2013-03-18 21:43:00,
2013-03-18 16:49:00,25.1,14.3,29.65,WSW,247,0.0,0.0,63,0.00,,,0.00,WUHU21636XXSP,2013-03-18 21:49:00,
2013-03-18 16:54:00,24.3,13.2,29.66,SSW,202,0.0,0.0,62,0.00,,,0.00,WUHU21636XXSP,2013-03-18 21:54:00,
2013-03-18 16:59:00,23.9,12.5,29.66,SSE,157,0.0,0.0,61,0.00,,,0.00,WUHU21636XXSP,2013-03-18 21:59:00,
2013-03-18 17:04:00,23.5,12.5,29.66,West,270,0.0,0.0,62,0.00,,,0.00,WUHU21636XXSP,2013-03-18 22:04:00,
2013-03-18 17:09:00,23.9,12.1,29.66,West,270,0.0,0.0,60,0.00,,,0.00,WUHU21636XXSP,2013-03-18 22:09:00,
2013-03-18 17:14:00,24.3,11.6,29.66,West,270,0.0,0.0,58,0.00,,,0.00,WUHU21636XXSP,2013-03-18 22:14:00,
2013-03-18 17:19:00,23.7,11.5,29.66,WSW,247,0.0,0.0,59,0.00,,,0.00,WUHU21636XXSP,2013-03-18 22:19:00,
2013-03-18 17:24:00,23.9,11.7,29.66,SW,225,0.0,0.0,59,0.00,,,0.00,WUHU21636XXSP,2013-03-18 22:24:00,
2013-03-18 17:29:00,23.9,11.7,29.66,West,270,0.0,0.0,59,0.00,,,0.00,WUHU21636XXSP,2013-03-18 22:29:00,
2013-03-18 17:34:00,23.5,10.9,29.67,WSW,247,0.0,0.0,58,0.00,,,0.00,WUHU21636XXSP,2013-03-18 22:34:00,
2013-03-18 17:39:00,23.2,11.4,29.67,WSW,247,0.0,0.0,60,0.00,,,0.00,WUHU21636XXSP,2013-03-18 22:39:00,
2013-03-18 17:44:00,23.2,11.8,29.67,South,180,0.0,0.0,61,0.00,,,0.00,WUHU21636XXSP,2013-03-18 22:44:00,
2013-03-18 17:49:00,22.4,10.6,29.68,WSW,247,0.0,0.0,60,0.00,,,0.00,WUHU21636XXSP,2013-03-18 22:49:00,
2013-03-18 17:54:00,22.4,11.0,29.68,WSW,247,0.0,0.0,61,0.00,,,0.00,WUHU21636XXSP,2013-03-18 22:54:00,
2013-03-18 17:59:00,21.8,10.9,29.69,SW,225,0.0,0.0,62,0.00,,,0.00,WUHU21636XXSP,2013-03-18 22:59:00,
2013-03-18 18:04:00,20.2,9.3,29.69,WSW,247,0.0,0.0,62,0.00,,,0.00,WUHU21636XXSP,2013-03-18 23:04:00,
2013-03-18 18:09:00,19.5,9.0,29.69,WNW,292,0.0,0.0,63,0.00,,,0.00,WUHU21636XXSP,2013-03-18 23:09:00,
2013-03-18 18:14:00,19.2,9.4,29.69,South,180,0.0,0.0,65,0.00,,,0.00,WUHU21636XXSP,2013-03-18 23:14:00,
2013-03-18 18:19:00,19.0,8.9,29.69,SSW,202,0.0,0.0,64,0.00,,,0.00,WUHU21636XXSP,2013-03-18 23:19:00,
2013-03-18 18:24:00,18.8,9.0,29.69,SSW,202,0.0,0.0,65,0.00,,,0.00,WUHU21636XXSP,2013-03-18 23:24:00,
2013-03-18 18:29:00,19.2,9.8,29.69,SSW,202,0.0,0.0,66,0.00,,,0.00,WUHU21636XXSP,2013-03-18 23:29:00,
2013-03-18 18:34:00,19.5,10.1,29.69,SSW,202,0.0,0.0,66,0.00,,,0.00,WUHU21636XXSP,2013-03-18 23:34:00,
2013-03-18 18:39:00,19.7,10.3,29.70,West,270,0.0,0.0,66,0.00,,,0.00,WUHU21636XXSP,2013-03-18 23:39:00,
2013-03-18 18:44:00,19.5,10.1,29.70,SW,225,0.0,0.0,66,0.00,,,0.00,WUHU21636XXSP,2013-03-18 23:44:00,
2013-03-18 18:49:00,19.5,10.4,29.70,WSW,247,0.0,0.0,67,0.00,,,0.00,WUHU21636XXSP,2013-03-18 23:49:00,
2013-03-18 18:54:00,19.4,11.0,29.70,SSW,202,0.0,0.0,69,0.00,,,0.00,WUHU21636XXSP,2013-03-18 23:54:00,
2013-03-18 18:59:00,19.0,10.6,29.71,SW,225,0.0,0.0,69,0.00,,,0.00,WUHU21636XXSP,2013-03-18 23:59:00,
2013-03-18 19:04:00,18.6,10.8,29.71,West,270,0.0,0.0,71,0.00,,,0.00,WUHU21636XXSP,2013-03-19 00:04:00,
2013-03-18 19:09:00,18.3,10.8,29.71,WNW,292,0.0,0.0,72,0.00,,,0.00,WUHU21636XXSP,2013-03-19 00:09:00,
2013-03-18 19:14:00,18.1,10.6,29.71,West,270,0.0,0.0,72,0.00,,,0.00,WUHU21636XXSP,2013-03-19 00:14:00,
2013-03-18 19:19:00,17.9,10.4,29.71,SW,225,0.0,0.0,72,0.00,,,0.00,WUHU21636XXSP,2013-03-19 00:19:00,
2013-03-18 19:24:00,17.5,9.5,29.71,SW,225,0.0,0.0,70,0.00,,,0.00,WUHU21636XXSP,2013-03-19 00:24:00,
2013-03-18 19:29:00,17.5,9.1,29.71,WSW,247,0.0,0.0,69,0.00,,,0.00,WUHU21636XXSP,2013-03-19 00:29:00,
2013-03-18 19:34:00,17.3,8.3,29.71,WNW,292,0.0,0.0,67,0.00,,,0.00,WUHU21636XXSP,2013-03-19 00:34:00,
2013-03-18 19:39:00,16.9,7.6,29.71,WSW,247,0.0,0.0,66,0.00,,,0.00,WUHU21636XXSP,2013-03-19 00:39:00,
2013-03-18 19:44:00,17.1,7.8,29.71,WSW,247,0.0,0.0,66,0.00,,,0.00,WUHU21636XXSP,2013-03-19 00:44:00,
2013-03-18 19:49:00,16.9,7.6,29.71,West,270,0.0,0.0,66,0.00,,,0.00,WUHU21636XXSP,2013-03-19 00:49:00,
2013-03-18 19:54:00,16.7,7.4,29.71,SW,225,0.0,0.0,66,0.00,,,0.00,WUHU21636XXSP,2013-03-19 00:54:00,
2013-03-18 19:59:00,16.7,7.7,29.72,SW,225,0.0,0.0,67,0.00,,,0.00,WUHU21636XXSP,2013-03-19 00:59:00,
2013-03-18 20:04:00,16.7,7.7,29.72,WNW,292,0.0,0.0,67,0.00,,,0.00,WUHU21636XXSP,2013-03-19 01:04:00,
2013-03-18 20:09:00,16.4,7.7,29.72,WSW,247,0.0,0.0,68,0.00,,,0.00,WUHU21636XXSP,2013-03-19 01:09:00,
2013-03-18 20:14:00,16.4,7.7,29.71,SW,225,0.0,0.0,68,0.00,,,0.00,WUHU21636XXSP,2013-03-19 01:14:00,
2013-03-18 20:19:00,16.4,7.7,29.72,SW,225,0.0,0.0,68,0.00,,,0.00,WUHU21636XXSP,2013-03-19 01:19:00,
2013-03-18 20:24:00,16.4,8.0,29.72,SW,225,0.0,0.0,69,0.00,,,0.00,WUHU21636XXSP,2013-03-19 01:24:00,
2013-03-18 20:29:00,16.4,8.0,29.72,SSW,202,0.0,0.0,69,0.00,,,0.00,WUHU21636XXSP,2013-03-19 01:29:00,
2013-03-18 20:34:00,16.2,7.8,29.72,WNW,292,0.0,0.0,69,0.00,,,0.00,WUHU21636XXSP,2013-03-19 01:34:00,
2013-03-18 20:39:00,16.4,8.0,29.73,WSW,247,0.0,0.0,69,0.00,,,0.00,WUHU21636XXSP,2013-03-19 01:39:00,
2013-03-18 20:44:00,16.4,8.0,29.73,SW,225,0.0,0.0,69,0.00,,,0.00,WUHU21636XXSP,2013-03-19 01:44:00,
2013-03-18 20:49:00,16.2,7.8,29.73,NW,315,0.0,0.0,69,0.00,,,0.00,WUHU21636XXSP,2013-03-19 01:49:00,
2013-03-18 20:54:00,16.2,7.8,29.73,SSW,202,0.0,0.0,69,0.00,,,0.00,WUHU21636XXSP,2013-03-19 01:54:00,
2013-03-18 20:59:00,16.2,7.8,29.74,SSW,202,0.0,0.0,69,0.00,,,0.00,WUHU21636XXSP,2013-03-19 01:59:00,
2013-03-18 21:04:00,16.0,7.9,29.74,WSW,247,0.0,0.0,70,0.00,,,0.00,WUHU21636XXSP,2013-03-19 02:04:00,
2013-03-18 21:09:00,16.0,8.3,29.74,SSW,202,0.0,0.0,71,0.00,,,0.00,WUHU21636XXSP,2013-03-19 02:09:00,
2013-03-18 21:14:00,15.8,8.1,29.74,SSW,202,0.0,0.0,71,0.00,,,0.00,WUHU21636XXSP,2013-03-19 02:14:00,
2013-03-18 21:19:00,15.8,7.7,29.75,SW,225,0.0,0.0,70,0.00,,,0.00,WUHU21636XXSP,2013-03-19 02:19:00,
2013-03-18 21:24:00,15.6,7.3,29.75,SW,225,0.0,0.0,69,0.00,,,0.00,WUHU21636XXSP,2013-03-19 02:24:00,
2013-03-18 21:29:00,15.6,7.3,29.75,SW,225,0.0,0.0,69,0.00,,,0.00,WUHU21636XXSP,2013-03-19 02:29:00,
2013-03-18 21:34:00,15.6,7.3,29.75,SW,225,0.0,0.0,69,0.00,,,0.00,WUHU21636XXSP,2013-03-19 02:34:00,
2013-03-18 21:39:00,15.4,6.8,29.75,South,180,0.0,0.0,68,0.00,,,0.00,WUHU21636XXSP,2013-03-19 02:39:00,
2013-03-18 21:44:00,15.4,6.8,29.75,SSW,202,0.0,0.0,68,0.00,,,0.00,WUHU21636XXSP,2013-03-19 02:44:00,
2013-03-18 21:49:00,15.2,6.3,29.75,WNW,292,0.0,0.0,67,0.00,,,0.00,WUHU21636XXSP,2013-03-19 02:49:00,
2013-03-18 21:54:00,15.0,6.4,29.75,WSW,247,0.0,0.0,68,0.00,,,0.00,WUHU21636XXSP,2013-03-19 02:54:00,
2013-03-18 21:59:00,15.0,6.1,29.76,NW,315,0.0,0.0,67,0.00,,,0.00,WUHU21636XXSP,2013-03-19 02:59:00,
2013-03-18 22:04:00,14.8,5.5,29.76,West,270,0.0,0.0,66,0.00,,,0.00,WUHU21636XXSP,2013-03-19 03:04:00,
2013-03-18 22:09:00,14.5,5.2,29.76,SW,225,0.0,0.0,66,0.00,,,0.00,WUHU21636XXSP,2013-03-19 03:09:00,
2013-03-18 22:14:00,14.3,5.0,29.76,SSW,202,0.0,0.0,66,0.00,,,0.00,WUHU21636XXSP,2013-03-19 03:14:00,
2013-03-18 22:19:00,14.5,5.2,29.76,WSW,247,0.0,0.0,66,0.00,,,0.00,WUHU21636XXSP,2013-03-19 03:19:00,
2013-03-18 22:24:00,14.5,5.6,29.76,SW,225,0.0,0.0,67,0.00,,,0.00,WUHU21636XXSP,2013-03-19 03:24:00,
2013-03-18 22:29:00,14.3,5.0,29.76,West,270,0.0,0.0,66,0.00,,,0.00,WUHU21636XXSP,2013-03-19 03:29:00,
2013-03-18 22:34:00,14.3,5.4,29.76,SW,225,0.0,0.0,67,0.00,,,0.00,WUHU21636XXSP,2013-03-19 03:34:00,
2013-03-18 22:39:00,14.3,5.4,29.76,SW,225,0.0,0.0,67,0.00,,,0.00,WUHU21636XXSP,2013-03-19 03:39:00,
2013-03-18 22:44:00,14.3,5.4,29.76,SW,225,0.0,0.0,67,0.00,,,0.00,WUHU21636XXSP,2013-03-19 03:44:00,
2013-03-18 22:49:00,14.1,5.2,29.76,WSW,247,0.0,0.0,67,0.00,,,0.00,WUHU21636XXSP,2013-03-19 03:49:00,
2013-03-18 22:54:00,14.1,5.2,29.76,WSW,247,0.0,0.0,67,0.00,,,0.00,WUHU21636XXSP,2013-03-19 03:54:00,
2013-03-18 22:59:00,14.1,5.2,29.76,SSW,202,0.0,0.0,67,0.00,,,0.00,WUHU21636XXSP,2013-03-19 03:59:00,
2013-03-18 23:00:00,14.1,5.2,29.76,SSW,202,0.0,0.0,67,0.00,,,0.00,WUHU21636XXSP,2013-03-19 04:00:00,
2013-03-18 23:05:00,14.1,5.2,29.76,South,180,0.0,0.0,67,0.00,,,0.00,WUHU21636XXSP,2013-03-19 04:05:00,
2013-03-18 23:10:00,13.9,5.0,29.77,West,270,0.0,0.0,67,0.00,,,0.00,WUHU21636XXSP,2013-03-19 04:10:00,
2013-03-18 23:15:00,13.8,5.2,29.77,WSW,247,0.0,0.0,68,0.00,,,0.00,WUHU21636XXSP,2013-03-19 04:15:00,
2013-03-18 23:20:00,13.8,5.2,29.77,West,270,0.0,0.0,68,0.00,,,0.00,WUHU21636XXSP,2013-03-19 04:20:00,
2013-03-18 23:25:00,13.8,5.2,29.76,SSW,202,0.0,0.0,68,0.00,,,0.00,WUHU21636XXSP,2013-03-19 04:25:00,
2013-03-18 23:30:00,13.8,5.5,29.77,SSE,157,0.0,0.0,69,0.00,,,0.00,WUHU21636XXSP,2013-03-19 04:30:00,
2013-03-18 23:35:00,13.8,5.2,29.76,WSW,247,0.0,0.0,68,0.00,,,0.00,WUHU21636XXSP,2013-03-19 04:35:00,
2013-03-18 23:40:00,13.8,5.2,29.77,SW,225,0.0,0.0,68,0.00,,,0.00,WUHU21636XXSP,2013-03-19 04:40:00,
2013-03-18 23:45:00,13.5,5.0,29.77,SSW,202,0.0,0.0,68,0.00,,,0.00,WUHU21636XXSP,2013-03-19 04:45:00,
2013-03-18 23:50:00,13.5,5.0,29.77,SW,225,0.0,0.0,68,0.00,,,0.00,WUHU21636XXSP,2013-03-19 04:50:00,
2013-03-18 23:55:00,13.5,5.0,29.77,SSE,157,0.0,0.0,68,0.00,,,0.00,WUHU21636XXSP,2013-03-19 04:55:00,